#timestamp,LO_Frequency,Hit,StdDev 
1513314015.4,286046999.2,N
1513314035.2,286047000.4,N
1513314055.1,286047001.4,N
1513314056.0,286047001.4,N
1513314075.8,286047006.0,N
1513314095.6,286047002.9,N
1513314115.5,286047004.7,N
1513314135.3,286047005.8,N
1513314155.2,286047001.6,N
1513314175.9,286047000.4,N
1513314195.7,286047002.0,N
1513314215.6,286047002.7,N
1513314235.4,286046999.2,N
1513314255.2,286046998.6,N
1513314275.1,286047000.0,N
1513314276.0,286047000.0,N
1513314295.8,286047001.3,N
1513314315.7,286047000.6,N
1513314335.5,286046998.4,N
1513314355.3,286046998.5,N
1513314375.2,286046998.5,N
1513314395.0,286047000.7,N
1513314395.9,286047000.7,N
1513314415.8,286046999.7,N
1513314435.6,286047004.1,N
1513314455.4,286047001.4,N
1513314475.3,286047000.5,N
1513314495.1,286047002.4,N
1513314515.9,286047000.2,N
1513314535.7,286047000.1,N
1513314555.5,286047003.5,N
1513314575.4,286047001.7,N
1513314595.2,286047002.3,N
1513314615.0,286047004.1,N
1513314616.0,286047004.1,N
1513314635.8,286047004.4,N
1513314655.6,286047001.4,N
1513314675.5,286047000.0,N
1513314695.3,286047003.8,N
1513314715.1,286047003.5,N
1513314735.9,286047004.4,N
1513314755.7,286047003.9,N
1513314775.6,286047003.8,N
1513314795.4,286047001.7,N
1513314815.2,286047002.8,N
1513314835.1,286047000.1,N
1513314836.0,286047000.1,N
1513314855.8,286047000.0,N
1513314875.7,286047000.7,N
1513314895.5,286046998.1,N
1513314915.3,286046998.7,N
1513314935.2,286047000.1,N
1513314955.0,286047000.1,N
1513314955.9,286047000.1,N
1513314975.8,286047000.3,N
1513314995.6,286047001.5,N
1513315015.4,286047003.7,N
1513315035.3,286047001.8,N
1513315055.1,286047004.0,N
1513315075.8,286047001.4,N
1513315095.7,286047003.4,N
1513315115.5,286047005.2,N
1513315135.4,286047007.2,Y
1513315155.2,286047006.0,P
1513315175.0,286047003.8,N
1513315175.9,286047003.8,N
1513315195.8,286047002.5,N
1513315215.6,286047001.7,N
1513315235.5,286047001.6,N
1513315255.3,286047005.6,Y
1513315275.1,286047002.3,P
1513315295.9,286046999.2,N
1513315315.7,286047001.1,N
1513315335.6,286047001.7,N
1513315355.4,286047003.4,N
1513315375.2,286047001.7,N
1513315395.1,286047001.1,N
1513315396.0,286047001.1,N
1513315415.8,286047000.8,N
1513315435.6,286046998.4,N
1513315455.5,286047001.1,N
1513315475.3,286047001.2,N
1513315495.2,286046997.3,N
1513315515.0,286046998.3,N
1513315515.9,286046998.3,N
1513315535.7,286047001.1,N
1513315555.6,286046998.1,N
1513315575.4,286046998.8,N
1513315595.3,286046999.2,N
1513315615.1,286047000.9,N
1513315616.0,286047000.9,N
1513315635.8,286046998.2,N
1513315655.7,286046999.0,N
1513315675.5,286046999.6,N
1513315695.4,286046999.0,N
1513315715.2,286046999.3,N
1513315735.0,286046999.2,N
1513315735.9,286046999.2,N
1513315755.8,286047000.6,N
1513315775.6,286046996.6,N
1513315795.4,286046998.6,N
1513315815.3,286047000.2,N
1513315835.1,286047001.5,N
1513315855.9,286047004.4,N
1513315875.7,286047000.2,N
1513315895.5,286046999.7,N
1513315915.4,286047001.3,N
1513315935.2,286047002.4,N
1513315955.1,286047000.5,N
1513315956.0,286047000.5,N
1513315975.8,286047000.1,N
1513315995.6,286046999.7,N
1513316015.5,286047000.4,N
1513316035.3,286046999.6,N
1513316055.1,286046997.4,N
1513316075.9,286046996.3,N
1513316095.7,286046991.9,Y
1513316115.6,286046994.1,P
1513316135.4,286046995.8,N
1513316155.2,286046997.0,N
1513316175.1,286046996.6,N
1513316176.0,286046996.6,N
1513316195.8,286046999.4,N
1513316215.7,286046999.6,N
1513316235.5,286046997.4,N
1513316255.3,286046996.2,N
1513316275.2,286046999.0,N
1513316295.0,286046998.1,N
1513316295.9,286046998.1,N
1513316315.8,286047000.4,N
1513316335.6,286046998.7,N
1513316355.4,286046997.2,N
1513316375.3,286046999.5,N
1513316395.1,286046997.4,N
1513316415.8,286046996.1,N
1513316435.7,286046996.1,N
1513316455.5,286046997.7,N
1513316475.4,286046996.5,N
1513316495.2,286046996.8,N
1513316515.0,286046998.4,N
1513316515.9,286046998.4,N
1513316535.8,286046997.4,N
1513316555.6,286046997.1,N
1513316575.5,286046999.2,N
1513316595.3,286046996.2,N
1513316615.1,286046994.1,Y
1513316635.9,286046994.1,P
1513316655.7,286046995.7,N
1513316675.6,286046995.3,P
1513316695.4,286046999.3,N
1513316715.2,286047000.6,N
1513316735.1,286047000.2,N
1513316736.0,286047000.2,N
1513316755.8,286047001.1,N
1513316775.6,286047001.1,N
1513316795.5,286047000.2,N
1513316815.3,286047000.4,N
1513316835.2,286046998.5,N
1513316855.9,286046999.8,N
1513316875.7,286047003.8,N
1513316895.6,286047001.5,N
1513316915.4,286047000.5,N
1513316935.3,286046996.6,N
1513316955.1,286046997.0,N
1513316956.0,286046997.0,N
1513316975.8,286047002.3,N
1513316995.7,286047003.9,N
1513317015.5,286047001.4,N
1513317035.3,286047001.8,N
1513317055.2,286047003.0,N
1513317075.0,286047003.3,N
1513317075.9,286047003.3,N
1513317095.8,286047001.8,N
1513317115.6,286047005.4,N
1513317135.4,286047004.0,N
1513317155.3,286047003.8,N
1513317175.1,286047003.3,N
1513317195.9,286047002.3,N
1513317215.7,286047002.6,N
1513317235.5,286047000.4,N
1513317255.4,286047000.4,N
1513317275.2,286047004.4,N
1513317295.0,286047003.1,N
1513317296.0,286047003.1,N
1513317315.8,286047006.0,N
1513317335.6,286047004.1,N
1513317355.5,286047006.0,N
1513317375.3,286047005.6,N
1513317395.1,286047001.3,N
1513317415.9,286047003.1,N
1513317435.7,286047005.7,N
1513317455.6,286047002.9,N
1513317475.4,286047002.8,N
1513317495.2,286046998.9,N
1513317515.1,286046999.3,N
1513317516.0,286046999.3,N
1513317535.8,286046997.5,N
1513317555.6,286046999.6,N
1513317575.5,286046999.1,N
1513317595.3,286046996.9,N
